Macomb, IL

9:11 PM CDT on April 30, 2017 (GMT -0500)
Macomb Municipal

Weather History for KMQB - July, 2013

Change the Weather History Date:

Saturday, July 27, 2013

  Actual Average (KBRL) Record (KBRL)
Temperature  
Mean Temperature 62 °F -  
Max Temperature 71 °F 88 °F 109 °F (1930)
Min Temperature 52 °F 66 °F 49 °F (2004)
Degree Days  
Heating Degree Days 4    
Growing Degree Days 12 (Base 50)    
Moisture  
Dew Point 52 °F    
Average Humidity 71    
Maximum Humidity 93    
Minimum Humidity 43    
Precipitation  
Precipitation 0.00 in - - ()
Sea Level Pressure  
Sea Level Pressure 30.01 in    
Wind  
Wind Speed 8 mph (NW)    
Max Wind Speed 20 mph    
Max Gust Speed 28 mph    
Visibility 10 miles    
Events      
Averages and records for this station are not official NWS values.
T = Trace of Precipitation, MM = Missing Value Source: NWS Daily Summary

Daily Weather History Graph

Daily Weather History Graph

Search for Another Location

Airport or City:

Trip Planner

Search our weather history database for the weather conditions in past years. The results will help you decide how hot, cold, wet, or windy it might be!

Date:

Astronomy

Jul. 27, 2013 Rise Set
Actual Time 5:55 AM CDT 8:22 PM CDT
Civil Twilight 5:24 AM CDT 8:53 PM CDT
Nautical Twilight 4:45 AM CDT 9:31 PM CDT
Astronomical Twilight 4:02 AM CDT 10:14 PM CDT
Moon 11:08 PM CDT (7/27) 11:37 AM CDT (7/27)
Length of Visible Light 15h 29m
Length of Day
14h 27m
Waning Gibbous, 70% of the Moon is Illuminated
Jul 27
Waning Gibbous
Jul 29
Last Quarter
Aug 6
New
Aug 14
First Quarter
Aug 20
Full

Hourly Weather History & Observations

Time (CDT) Temp. Dew Point Humidity Pressure Visibility Wind Dir Wind Speed Gust Speed Precip Events Conditions
12:15 AM 60.8 °F 57.7 °F 90% 30.00 in 10.0 mi West 6.9 mph - N/A   Clear
12:35 AM 60.4 °F 57.6 °F 90% 30.00 in 10.0 mi West 4.6 mph - N/A   Clear
12:55 AM 60.3 °F 57.4 °F 90% 30.00 in 10.0 mi West 6.9 mph - N/A   Clear
1:15 AM 60.1 °F 57.2 °F 90% 30.00 in 10.0 mi West 6.9 mph - N/A   Clear
1:35 AM 60.1 °F 57.2 °F 90% 30.00 in 10.0 mi West 6.9 mph - N/A   Clear
1:55 AM 59.4 °F 56.8 °F 91% 29.99 in 10.0 mi West 5.8 mph - N/A   Clear
2:15 AM 59.2 °F 56.8 °F 92% 29.99 in 10.0 mi WNW 5.8 mph - N/A   Clear
2:35 AM 59.2 °F 56.8 °F 92% 29.99 in 10.0 mi WNW 6.9 mph - N/A   Clear
2:55 AM 59.9 °F 57.2 °F 91% 29.99 in 10.0 mi WNW 5.8 mph - N/A   Clear
3:15 AM 59.5 °F 57.2 °F 92% 29.99 in 10.0 mi WNW 4.6 mph - N/A   Clear
3:35 AM 59.7 °F 57.2 °F 91% 29.99 in 10.0 mi WNW 4.6 mph - N/A   Clear
3:55 AM 59.5 °F 57.2 °F 92% 29.98 in 10.0 mi WNW 5.8 mph - N/A   Clear
4:15 AM 59.2 °F 57.0 °F 93% 29.99 in 10.0 mi WNW 5.8 mph - N/A   Clear
4:35 AM 59.4 °F 57.2 °F 93% 29.99 in 10.0 mi NW 6.9 mph - N/A   Clear
4:55 AM 59.4 °F 57.2 °F 93% 30.00 in 10.0 mi WNW 8.1 mph - N/A   Clear
5:15 AM 59.2 °F 56.8 °F 92% 30.00 in 10.0 mi WNW 6.9 mph - N/A   Clear
5:35 AM 59.0 °F 56.7 °F 92% 30.00 in 10.0 mi WNW 6.9 mph - N/A   Clear
5:55 AM 58.5 °F 56.5 °F 93% 30.01 in 10.0 mi WNW 6.9 mph - N/A   Clear
6:15 AM 58.3 °F 56.3 °F 93% 30.02 in 10.0 mi WNW 6.9 mph - N/A   Clear
6:35 AM 58.6 °F 56.7 °F 93% 30.02 in 10.0 mi NW 6.9 mph - N/A   Scattered Clouds
6:55 AM 58.6 °F 56.7 °F 93% 30.03 in 10.0 mi NW 6.9 mph - N/A   Scattered Clouds
7:15 AM 58.6 °F 56.7 °F 93% 30.02 in 10.0 mi NW 5.8 mph - N/A   Mostly Cloudy
7:35 AM 60.1 °F 57.6 °F 91% 30.02 in 10.0 mi NW 9.2 mph - N/A   Clear
7:55 AM 61.2 °F 57.7 °F 88% 30.03 in 10.0 mi NNW 9.2 mph - N/A   Scattered Clouds
8:15 AM 61.9 °F 57.6 °F 86% 30.04 in 10.0 mi NNW 10.4 mph - N/A   Scattered Clouds
8:35 AM 63.0 °F 57.6 °F 82% 30.03 in 10.0 mi NW 10.4 mph - N/A   Scattered Clouds
8:55 AM 63.7 °F 56.5 °F 77% 30.04 in 10.0 mi NNW 9.2 mph - N/A   Scattered Clouds
9:15 AM 64.6 °F 55.8 °F 73% 30.04 in 10.0 mi NNW 12.7 mph - N/A   Scattered Clouds
9:35 AM 65.1 °F 54.5 °F 68% 30.03 in 10.0 mi NNW 9.2 mph 18.4 mph N/A   Scattered Clouds
9:55 AM 65.7 °F 52.5 °F 62% 30.03 in 10.0 mi NNW 13.8 mph - N/A   Clear
10:15 AM 67.1 °F 51.8 °F 58% 30.04 in 10.0 mi WNW 12.7 mph 20.7 mph N/A   Scattered Clouds
10:35 AM 67.6 °F 51.4 °F 56% 30.04 in 10.0 mi WNW 11.5 mph 16.1 mph N/A   Mostly Cloudy
10:55 AM 66.0 °F 49.1 °F 54% 30.04 in 10.0 mi NW 15.0 mph 21.9 mph N/A   Mostly Cloudy
11:15 AM 66.6 °F 49.5 °F 54% 30.04 in 10.0 mi WNW 16.1 mph 21.9 mph N/A   Scattered Clouds
11:35 AM 67.1 °F 48.4 °F 51% 30.04 in 10.0 mi NW 12.7 mph 21.9 mph N/A   Mostly Cloudy
11:55 AM 67.6 °F 48.2 °F 50% 30.04 in 10.0 mi WNW 15.0 mph 21.9 mph N/A   Mostly Cloudy
12:15 PM 68.5 °F 49.3 °F 50% 30.03 in 10.0 mi NW 11.5 mph 21.9 mph N/A   Mostly Cloudy
12:35 PM 69.6 °F 49.1 °F 48% 30.02 in 10.0 mi WNW 16.1 mph 21.9 mph N/A   Scattered Clouds
12:55 PM 69.6 °F 48.7 °F 47% 30.02 in 10.0 mi NW 19.6 mph 25.3 mph N/A   Mostly Cloudy
1:15 PM 69.6 °F 48.2 °F 46% 30.02 in 10.0 mi NW 17.3 mph 27.6 mph N/A   Mostly Cloudy
1:35 PM 69.6 °F 47.5 °F 45% 30.03 in 10.0 mi NW 13.8 mph 24.2 mph N/A   Mostly Cloudy
1:55 PM 68.5 °F 46.6 °F 45% 30.03 in 10.0 mi NW 16.1 mph 23.0 mph N/A   Overcast
2:15 PM 70.2 °F 46.9 °F 43% 30.02 in 10.0 mi WNW 18.4 mph 23.0 mph N/A   Mostly Cloudy
2:35 PM 68.4 °F 46.4 °F 45% 30.02 in 10.0 mi WNW 15.0 mph 23.0 mph N/A   Mostly Cloudy
2:55 PM 69.1 °F 46.9 °F 45% 30.02 in 10.0 mi NW 15.0 mph 24.2 mph N/A   Overcast
3:15 PM 69.3 °F 46.4 °F 44% 30.02 in 10.0 mi NW 13.8 mph 19.6 mph N/A   Overcast
3:35 PM 70.0 °F 47.7 °F 45% 30.02 in 10.0 mi WNW 13.8 mph 21.9 mph N/A   Scattered Clouds
3:55 PM 69.1 °F 46.4 °F 44% 30.01 in 10.0 mi NW 13.8 mph 19.6 mph N/A   Mostly Cloudy
4:15 PM 69.8 °F 47.3 °F 45% 30.01 in 10.0 mi WNW 11.5 mph 18.4 mph N/A   Mostly Cloudy
4:35 PM 70.7 °F 47.7 °F 44% 30.00 in 10.0 mi WNW 11.5 mph 18.4 mph N/A   Mostly Cloudy
4:55 PM 70.7 °F 48.4 °F 45% 30.00 in 10.0 mi NNW 11.5 mph 16.1 mph N/A   Mostly Cloudy
5:15 PM 68.7 °F 47.7 °F 47% 30.00 in 10.0 mi NW 9.2 mph 17.3 mph N/A   Overcast
5:35 PM 69.8 °F 47.8 °F 46% 30.00 in 10.0 mi WNW 10.4 mph 18.4 mph N/A   Scattered Clouds
5:55 PM 69.8 °F 48.4 °F 46% 30.00 in 10.0 mi NW 8.1 mph - N/A   Mostly Cloudy
6:15 PM 68.7 °F 48.2 °F 48% 30.00 in 10.0 mi NW 11.5 mph 16.1 mph N/A   Scattered Clouds
6:35 PM 68.5 °F 48.4 °F 49% 30.00 in 10.0 mi NW 11.5 mph - N/A   Scattered Clouds
6:55 PM 68.4 °F 48.7 °F 49% 30.00 in 10.0 mi NNW 9.2 mph - N/A   Scattered Clouds
7:15 PM 68.0 °F 49.3 °F 51% 30.00 in 10.0 mi NW 8.1 mph - N/A   Scattered Clouds
7:35 PM 66.6 °F 48.2 °F 52% 30.00 in 10.0 mi NW 8.1 mph - N/A   Scattered Clouds
7:55 PM 65.7 °F 50.2 °F 57% 30.01 in 10.0 mi NNW 6.9 mph - N/A   Mostly Cloudy
8:15 PM 63.5 °F 50.4 °F 62% 30.01 in 10.0 mi NNW 6.9 mph - N/A   Scattered Clouds
8:35 PM 61.2 °F 51.3 °F 70% 30.01 in 10.0 mi NNW 4.6 mph - N/A   Scattered Clouds
8:55 PM 59.5 °F 51.6 °F 75% 30.01 in 10.0 mi NNW 3.5 mph - N/A   Clear
9:15 PM 58.1 °F 51.4 °F 78% 30.01 in 10.0 mi NW 4.6 mph - N/A   Clear
9:35 PM 56.1 °F 52.3 °F 87% 30.02 in 10.0 mi West 3.5 mph - N/A   Clear
9:55 PM 55.6 °F 52.5 °F 89% 30.03 in 10.0 mi West 5.8 mph - N/A   Clear
10:15 PM 55.8 °F 51.8 °F 87% 30.03 in 10.0 mi West 5.8 mph - N/A   Clear
10:35 PM 54.7 °F 51.3 °F 88% 30.03 in 10.0 mi West 4.6 mph - N/A   Clear
10:55 PM 54.1 °F 51.3 °F 90% 30.03 in 10.0 mi West 4.6 mph - N/A   Clear
11:15 PM 54.1 °F 50.9 °F 89% 30.02 in 10.0 mi West 4.6 mph - N/A   Clear
11:35 PM 53.2 °F 50.4 °F 90% 30.02 in 10.0 mi West 3.5 mph - N/A   Clear
11:55 PM 52.9 °F 50.4 °F 91% 30.02 in 10.0 mi West 4.6 mph - N/A   Clear